DECAYED

FENGYUN 1C DEB, 30485 (Decayed)

Orbit data source: Space-Track

FENGYUN 1C DEB, 30485 was space debris in SSO originally from a launch on Mon, 10 May 1999 UTC launched from the Taiyaun Space Center, China (TSC). Fengyun 1C debris stems from the Chinese weather satellite Fengyun-1C, which was intentionally destroyed by a Chinese anti-satellite missile in 2007. This event dramatically increased the amount of space debris, with thousands of trackable fragments posing hazards to satellites and human spaceflight. The Fengyun 1C debris cloud has become a focal point in discussions about space sustainability and the need for international regulations to prevent the creation of new debris.

Not visible in the next 10 days
Identifier
30485, 1999-025AGX
Orbit
Decayed
Country
Flag of CNCN / PRC
Related business
Manufacturer
Unknown
Mission
Decayed spacecraft
Bus & Motor
Unknown
Mass
Unknown
Launch date (UTC)
1999-05-10 (27 years ago)
Launch vehicle
Unknown
Launch site
Taiyaun Space Center, China (TSC)
Object type
Payload
Rocket body
Debris
Shape & HBR
Unknown shape, 0.1 m
Radar Cross Section
Medium (>0.1 m² and <1 m²)

Expand to show TLE details & history
Last TLE update: 10 months ago

TLE from 10 months ago
0 FENGYUN 1C DEB
1 30485U 99025AGX 25227.43519592  .05589918  63052-1  17405-1 0  9991
2 30485  98.9047 201.8742 0021539 168.1786 191.9996 15.97210452970983
Epoch: 2025-08-15T10:26Z
TLE epoch observation values (Epoch: 2025-08-15T10:26:40.927Z)
Latitude
-0.00003°
Longitude
81.11885°
Altitude
299.345 km
Speed
7.72 km/s
True Right ascension
13h 27m 29s
True Declination
0° 00' 00"
Sunlit
Object was in daylight at epoch
Visualization orbit readout
Latitude
Unknown
Longitude
Unknown
Altitude
Unknown
Speed
Unknown
Apparent Right ascension
Unknown
Apparent Declination
Unknown
Sunlit
N/A
Visualization observer readout
Local Sidereal Time
16:45:38
Azimuth
Unknown
Elevation
Unknown
Doppler factor
Unknown
Orbital elements
Apogee altitude
293.438 km
Perigee altitude
264.76 km
Semi-major axis
6,657.236 km
Eccentricity
0.00215
Inclination
98.9047°
RAAN
201.8742°
Arg. of periapsis
168.1786°
True anomaly
191.94842°
Mean anomaly
191.9996°
Eccentric anomaly
191.974°
Mean motion
3.99579 °/min
Orbital period
90.09 mins
BSTAR
0.017405
Loading maneuver chart data...
Computing Atmospheric mass density...

Documentation

Showing up to 5 results
|